This is the latest recevied weather packets stored in our database for station/object N0QV. If no packets are shown the sender has not sent any weather packets the latest 10 day(s).
| Time | Temp. | Humidity | Pressure | Rain* | Wind** | Luminosity | Snow |
|---|---|---|---|---|---|---|---|
| 1777485304 | 12.22° C | 39% | 1019.4 hPa | 0 mm | - | 225 W/m² | - |
| 1777485001 | 12.78° C | 36% | 1019.2 hPa | 0 mm | - | 165 W/m² | - |
| 1777484698 | 12.78° C | 39% | 1019.2 hPa | 0 mm | - | 721 W/m² | - |
| 1777484394 | 12.22° C | 38% | 1019.3 hPa | 0 mm | - | 849 W/m² | - |
| 1777484090 | 13.33° C | 40% | 1019.4 hPa | 0 mm | - | 204 W/m² | - |
| 1777483786 | 13.33° C | 39% | 1019.4 hPa | 0 mm | - | 817 W/m² | - |
| 1777483484 | 13.33° C | 39% | 1019.4 hPa | 0 mm | - | 811 W/m² | - |
| 1777483178 | 12.78° C | 38% | 1019.4 hPa | 0 mm | - | 748 W/m² | - |
| 1777482875 | 12.78° C | 39% | 1019.6 hPa | 0 mm | - | 762 W/m² | - |
| 1777482571 | 12.78° C | 39% | 1019.5 hPa | 0 mm | - | 821 W/m² | - |
| 1777482268 | 13.33° C | 39% | 1019.6 hPa | 0 mm | - | 792 W/m² | - |
| 1777481966 | 12.22° C | 39% | 1019.8 hPa | 0 mm | - | 793 W/m² | - |
| 1777481663 | 12.78° C | 39% | 1019.6 hPa | 0 mm | - | 577 W/m² | - |
| 1777481360 | 12.78° C | 40% | 1019.8 hPa | 0 mm | - | 676 W/m² | - |
| 1777481056 | 12.78° C | 39% | 1019.8 hPa | 0 mm | - | 750 W/m² | - |
| 1777480753 | 12.22° C | 40% | 1019.7 hPa | 0 mm | - | 768 W/m² | - |
| 1777480450 | 12.22° C | 39% | 1019.8 hPa | 0 mm | - | 723 W/m² | - |
| 1777480146 | 11.67° C | 39% | 1019.7 hPa | 0 mm | - | 760 W/m² | - |
| 1777479843 | 11.67° C | 40% | 1019.5 hPa | 0 mm | - | 762 W/m² | - |
| 1777479540 | 11.67° C | 41% | 1019.8 hPa | 0 mm | - | 756 W/m² | - |
| 1777479236 | 11.67° C | 44% | 1019.9 hPa | 0 mm | - | 741 W/m² | - |
| 1777478934 | 11.67° C | 40% | 1019.7 hPa | 0 mm | - | 757 W/m² | - |
| 1777478630 | 11.67° C | 40% | 1020 hPa | 0 mm | - | 784 W/m² | - |
| 1777478327 | 12.22° C | 42% | 1019.9 hPa | 0 mm | - | 795 W/m² | - |
| 1777478024 | 11.67° C | 41% | 1019.8 hPa | 0 mm | - | 808 W/m² | - |
* Rain latest hour (hover to see other rain measurements)
** Current wind speed in m/s (hover to see current wind gust speed)